Regional Weather Roundup
Issued by NWS

Home | Current Version | Previous Version | Text Only | Print | Product List | Glossary On
Versions: 1 2 3 4 5 6 7 8 9 10 11 12 13 14 15 16 17 18 19 20 21 22 23 24 25 26 27 28 29 30 31 32 33 34 35 36 37 38 39 40 41 42 43 44 45 46 47 48 49 50
000
ASUS44 KOUN 281510
RWROK

WEATHER ROUNDUP FOR OKLAHOMA
NATIONAL WEATHER SERVICE NORMAN OK
1000 AM CDT TUE APR 28 2015

NOTE: "FAIR" INDICATES FEW OR NO CLOUDS BELOW 12,000 FEET WITH NO
      SIGNIFICANT WEATHER AND/OR OBSTRUCTIONS TO VISIBILITY.

OKZ001>007-009>012-014-015-017-281600-
NORTHWEST OKLAHOMA AND THE PANHANDLE

CITY           SKY/WX    TMP DP  RH WIND       PRES   REMARKS
GAGE           PTSUNNY   54  42  64 N10       30.22R
GUYMON         SUNNY     53  39  59 N15       30.26R
ENID/WOODRING  PTSUNNY   52  52 100 NW8       30.17R
$$

OKZ016-021>023-033>039-044-045-281600-
SOUTHWEST OKLAHOMA

CITY           SKY/WX    TMP DP  RH WIND       PRES   REMARKS
LAWTON/REGL    CLOUDY    53  46  77 NE13      30.16R
LAWTON/FT SILL CLOUDY    53  47  82 N13       30.14S
FREDERICK      CLOUDY    53  45  74 NE15      30.15R
CLINTON        LGT RAIN  50  46  86 N10       30.22R
HOBART         CLOUDY    50  47  89 N9        30.19R
ALTUS AFB      CLOUDY    51  48  87 N13       30.19R
$$

OKZ018>020-024>031-281600-
CENTRAL OKLAHOMA

CITY           SKY/WX    TMP DP  RH WIND       PRES   REMARKS
OKLAHOMA CITY  LGT RAIN  51  45  79 NE8       30.17R
OKC/WILEY POST LGT RAIN  52  46  80 E6        30.17R
OKC/TINKER AFB CLOUDY    50  45  85 N6        30.15R
STILLWATER     CLOUDY    51  49  92 W5        30.17R
GUTHRIE        LGT RAIN  50  47  89 NW5       30.17R
$$

OKZ008-013-054>072-281600-
NORTHEAST OKLAHOMA

CITY           SKY/WX    TMP DP  RH WIND       PRES   REMARKS
TULSA          CLOUDY    53  49  86 NW7       30.13R
TULSA/JONES    CLOUDY    52  49  89 VRB5      30.14R
PONCA CITY     CLOUDY    53  46  77 N6        30.16R
BARTLESVILLE   CLOUDY    55  43  63 N7        30.16R
MUSKOGEE       CLOUDY    53  50  89 NW6       30.14R
$$

OKZ032-040>043-046>053-073>077-281600-
SOUTH CENTRAL/SOUTHEAST OKLAHOMA

CITY           SKY/WX    TMP DP  RH WIND       PRES   REMARKS
ARDMORE/DWNTWN CLOUDY    52  46  82 NE9       30.12R
MCALESTER      LGT RAIN  52  50  93 N7        30.13R FOG
$$



USA.gov is the U.S. government's official web portal to all federal, state and local government web resources and services.